Location: Melbourne
(37.8170°S, 144.9670°E)
Time: 20:30:06
(UTC+10:00)

CZ-3 R/B - Visible Passes

Search period start: 27 April 2015 00:00
Search period end: 07 May 2015 00:00
Orbit: 183 x 13335 km, 28.5° (Epoch: 27 April)

Date Brightness Start Highest point End Pass type
(mag) Time Alt. Az. Time Alt. Az. Time Alt. Az.
27 Apr 6.8 02:11:35 10° W 03:45:37 26° NW 04:33:53 10° NNW visible
27 Apr 4.5 18:07:46 10° WNW 18:18:47 61° NNE 19:08:57 19° E visible
27 Apr 6.3 22:31:44 10° W 23:17:55 61° NNW 01:12:08 10° NE visible
28 Apr 6.8 04:36:27 14° WNW 05:03:36 12° NW 05:12:49 10° NW visible
28 Apr 4.9 19:07:54 10° WNW 19:22:40 69° N 20:06:34 32° ENE visible
28 Apr 6.4 23:34:57 10° W 01:23:31 39° N 02:15:26 10° NNE visible
29 Apr 5.4 20:07:22 10° W 20:27:35 70° N 22:22:13 10° ENE visible
30 Apr 6.6 00:39:00 10° W 02:18:50 35° NNW 03:14:12 10° N visible
30 Apr 5.8 21:06:11 10° W 21:34:08 66° NNW 23:33:57 10° NE visible
01 May 6.8 01:45:58 10° W 03:14:21 26° NW 04:07:04 10° NNW visible
01 May 4.3 17:42:13 10° WNW 17:51:38 59° NNE 18:44:30 12° E visible
01 May 6.2 22:04:28 10° W 22:42:55 60° NNW 00:38:51 10° NE visible
02 May 6.9 04:05:33 15° WNW 04:29:28 13° NW 04:44:11 10° NW visible
02 May 4.7 18:37:48 10° WNW 18:50:05 66° N 19:38:22 24° ENE visible
02 May 6.3 23:02:31 10° W 00:48:25 36° N 01:38:39 10° NNE visible
03 May 5.1 19:32:36 10° W 19:48:54 68° N 21:31:18 10° ENE visible
04 May 6.5 00:00:55 10° W 01:38:38 34° NNW 02:34:02 10° N visible
04 May 5.5 20:26:38 10° W 20:48:26 65° N 22:41:25 10° NE visible
05 May 6.7 01:00:57 10° W 02:27:29 28° NW 03:24:21 10° N visible
05 May 4.0 16:59:54 10° NW 17:07:23 53° NNE 17:47:08 10° E visible
05 May 6.0 21:19:59 10° W 21:49:08 60° NNW 23:44:23 10° NE visible
06 May 6.9 02:06:30 10° W 03:31:29 17° NW 04:04:58 10° NNW visible
06 May 4.3 17:50:55 10° WNW 18:00:21 62° NNE 18:56:57 11° E visible
